sat.trackr.live / text

‹ back to catalog

STARLINK-1608

NORAD 46146 · 2020-057AF

PAYLOAD ACTIVE UNKNOWN

§ Identity

Operator
Country
US
Launch date
2020-08-18
Launch site
AFETR
Launch vehicle
Mass (kg)
RCS (m²)

Purposes: comms

External: N2YO · Heavens-Above · Gunter

§ Orbital elements

Epoch: 2026-09-20T03:24:41.138784Z

Period
93.14 min
Inclination
53.1522°
Eccentricity
0.0000316
Mean motion
15.46118221 rev/d
Perigee alt
427.9 km
Apogee alt
428.3 km
Semi-major
6,806.2 km
B*
9.2763e-4
RAAN
116.7232°
Arg perigee
60.6656°
Mean anomaly
299.4383°
Rev number
33,608

§ Raw data

STARLINK-16081 46146U 20057AF  26263.14214281  .00046012  00000+0  92763-3 0  99992 46146  53.1522 116.7232 0000316  60.6656 299.4383 15.46118221336081

JSON: /api/v1/satellites/46146 · /tle

For live sub-satellite position, see the globe view (requires WebGL).

§ Visibility from observer

Set your observer location to see the next 7 days of passes ≥ 10°. The values pass through the URL so the page stays shareable.

No JS? Fill the form by hand. The geolocation button needs JavaScript.